Hourly Data Report for November 06, 2019

All times are specified in Local Standard Time (LST). Add 1 hour to adjust for Daylight Saving Time where and when it is observed.

EUREKA CLIMATE
NUNAVUT
Current Station Operator: ECCC - MSC

79°59'21.000" N
85°56'02.000" W
10.00 m
2401199
71613
NEK

Download Data

Hourly Data (November 2019)
Hourly Data Report for November 6, 2019
TIME Temp Definition
°C
Dew Point Definition
°C
Rel Hum Definition
%
Wind Dir Definition
10's deg

Wind Spd Definition
km/h
Visibility Definition
km
Stn Press Definition
kPa
Hmdx Definition


Wind Chill Definition


Weather Definition


00:00 -22.7 -24.8 83 7 6   101.65   -28 LegendNANA
01:00 -23.3 -25.4 83 8 5   101.69   -28 LegendNANA
02:00 -25.0 -27.3 81 4 7   101.72   -31 LegendNANA
03:00 -24.7 -26.9 82 3 8   101.75   -32 LegendNANA
04:00 -24.2 -26.5 81 3 10   101.78   -32 LegendNANA
05:00 -24.5 -26.9 80 3 8   101.82   -32 LegendNANA
06:00 -25.1 -27.4 81 3 8   101.84   -32 LegendNANA
07:00 -25.2 -27.6 81 3 8   101.88   -32 LegendNANA
08:00 -25.2 -27.6 80 2 10   101.88   -33 LegendNANA
09:00 -25.5 -27.8 81 4 6   101.90   -31 LegendNANA
10:00 -24.5 -26.7 82 8 3   101.92   -27 LegendNANA
11:00 -23.8 -25.9 83 6 3   101.95   -27 LegendNANA
12:00 -23.2 -25.4 82 10 3   101.97   -26 LegendNANA
13:00 -24.6 -26.9 81 3 7   101.98   -31 LegendNANA
14:00 -25.1 -27.3 82 3 5   102.01   -30 LegendNANA
15:00 -25.7 -28.2 80 2 8   102.03   -33 LegendNANA
16:00 -24.8 -27.1 81 3 7   102.06   -31 LegendNANA
17:00 -24.6 -26.9 81 2 10   102.08   -33 LegendNANA
18:00 -23.7 -26.0 81 3 7   102.09   -30 LegendNANA
19:00 -23.3 -26.0 79 3 9   102.10   -31 LegendNANA
20:00 -23.5 -26.1 79 2 7   102.11   -30 LegendNANA
21:00 -23.5 -26.0 80 2 15   102.11   -33 LegendNANA
22:00 -23.4 -25.9 80 2 13   102.10   -33 LegendNANA
23:00 -24.3 -27.1 78 2 14   102.11   -34 LegendNANA

Notes on Data Quality.

Legend

  • E = Estimated
  • M = Missing
  • NA = Not Available
Date modified: